Погода в Нолинске

Погода в Нолинске : погода сейчас, прогноз погоды и архив. Всё, что Вы хотите узнать о погоде в Нолинске!

Хотите узнать прогноз погоды в Нолинске? Тогда Вам сюда: Погода в Нолинске

Поиск расширенной информации на нашем сайте:

Другие новости

Новости СМИ2

Главная страница сайта

Новости сайта

03.07.2017

Напоминаем, что на нашем специализированном сайте Метеоцентр.Азия вы можете получить высокодетализированные автоматические прогнозы погоды по пунктам России, СНГ и мира в авиационном формате (включающие направление и скорость ветра, видимость, явления погоды, количество и форму облачности, нижнюю и верхнюю границу облачности).

Рекомендуем: Мобильные конструкции в аренду. Мобильные выставочные стенды конструкции.

Погода в Нолинске - сегодня

Время (UTC), дата Ветер
(°,м/с) 
Видим.   Явления Облачность Т
(°С)
Тd
(°С)
f(%) Тe
(°С)
Pmin
(гПа)
dP
(гПа)
Po
(мм)
O2
(г/м3)
Тmin Tmax R s Состояние
почвы
06 10.12.17 тихо () -0{02}  2000 м  слаб. ливневой снег  10/9 300 м кучево-дожд., средняя 
[Cb cap|Ac und]
-12.6 -13.9 90 -13  1024.6  0.8  755  320  -12.7         
09 10.12.17 150 (ЮВ) 1-1{02}  10 км  слаб. ливневой снег  10/8 300 м кучево-дожд., средняя 
[Cb cap|Ac und]
-13 -14.4 89 -13  1025.4  0.6  756  321           
12 10.12.17 тихо () -0{02}  20000 м  в посл. час снег{ливн. осадки}  6/4 600 м средняя 
[Sc|Ac trans]
-13.8 -16.5 80 -14  1026.3  0.9  756  322           
15 10.12.17 120 (ЮВ) 1-1{01}  20000 м    3/0 
-15.5 -18.3 79 -16  1027.6  1.1  757  325    -12.2  0.0     
18 10.12.17 110 (В) 1-1{01}  20000 м    ясно 
-17.9 -20.5 80 -18  1027.7  757  328           
21 10.12.17 110 (В) 1-2{02}  20000 м    ясно 
-20.9 -24.2 75 -21  1028.3  0.4  757  332           
00 11.12.17 090 (В) 1-2{02}  20000 м    ясно 
-19.7 -22.3 80 -20  1028.4  0.2  758  331           
03 11.12.17 110 (В) 1-2{03}  20000 м    4/3 600 м средняя 
[Sc|Ac trans]
-22.3 -25.5 75 -23  1028.2  -0.4  757  334  -22.4      17  равномерный
сухой снег
100% 
06 11.12.17 100 (В) 1-2{03}  20000 м    8/6 600 м средняя 
[Sc|Ac trans]
-19 -22.3 75 -19  1030.2  759  330           
09 11.12.17 080 (В) 1-2{04}  20000 м    10/10 600 м 
[Sc]
-14.6 -16.6 85 -15  1028.5  -0.9  758  324           
12 11.12.17 080 (В) 2-3{03}  20000 м    10/10 600 м 
[Sc]
-13.1 -14.4 90 -15  1028.2  -0.2  758  322           
15 11.12.17 100 (В) 2-4{04}  10 км  слаб. снег  10/4 300 м средняя 
[Frnb|Ac As]
-12 -13.3 90 -14  1027.7  -0.5  757  320    -12  0.0     
18 11.12.17 100 (В) 1-2{03}  10 км  слаб. снег  10/4 300 м средняя 
[Frnb|Ac As]
-10.9 -12.2 90 -11  1027.1  -0.5  757  319           
21 11.12.17 100 (В) 2-4{04}  10 км  слаб. снег  10/5 300 м средняя 
[Frnb|Ac As]
-9.9 -11.1 91 -12  1026.4  -0.6  757  317           
00 12.12.17 120 (ЮВ) 1-3{05}  2000 м  снег  10/6 300 м средняя 
[Frnb|Ac As]
-9.8 -11 91 -10  1025.5  -0.9  756  317           
03 12.12.17 100 (В) 2-5{07}  2000 м  снег  10/8 300 м средняя 
[Frnb|Ac As]
-9.2 -10.3 92 -11  1025.5  0.1  756  316  -12    18  равномерный
сухой снег
100% 
06 12.12.17 080 (В) 1-2{07}  20000 м  {снег}  10/10 300 м 
[St]
-8.8 -9.9 92 -9  1025.9  0.5  756  316           
09 12.12.17 110 (В) 2-4{04}  10 км  слаб. снег  10/6 300 м средняя 
[Frnb|Ac As]
-7.4 -8.7 90 -9  1026.6  0.6  757  314           
12 12.12.17 120 (ЮВ) 3-4{04}  10 км  слаб. снег  10/6 300 м средняя 
[Frnb|Ac As]
-6.2 -7 94 -9  1026.9  0.4  757  313           
15 12.12.17 100 (В) 2-5{05}  20000 м  в посл. час снег  10/8 300 м средняя 
[St|Ac As]
-6.1 -6.9 94 -8  1027.2  0.3  757  313    -5.8     
18 12.12.17 120 (ЮВ) 2-4{06}  10 км  слаб. снег  10/8 300 м средняя 
[Frnb|Ac As]
-4.8 -5.8 93 -6  1026.4  -0.6  757  311           
21 12.12.17 120 (ЮВ) 3-4{06}  10 км  слаб. снег  10/9 300 м средняя 
[Frnb|Ac As]
-4.3 -5.5 91 -7  1026.3  -0.1  757  310           
00 13.12.17 140 (ЮВ) 3-7{07}  10 км  слаб. снег  10/8 300 м средняя 
[Frnb|Ac As]
-3.4 -4.8 90 -6  1025.7  -0.5  756  309           
03 13.12.17 160 (Ю) 6-10{10}  10 км  слаб. снег  10/8 300 м средняя 
[Frnb|Ac As]
-2.8 -4.8 86 -7  1025.1  -0.6  756  308  -6.1    19  равномерный
сухой снег
100% 
06 13.12.17 170 (Ю) 9-14{14}  20000 м  позёмок{снег}  10/8 300 м средняя 
[St|Ac As]
-3 -4.3 91 -8  1024.6  -0.5  756  308           
Время (UTC), дата Ветер
(°,м/с) 
Видим.   Явления Облачность Т
(°С)
Тd
(°С)
f(%) Тe
(°С)
Pmin
(гПа)
dP
(гПа)
Po
(мм)
O2
(г/м3)
Тmin Tmax R s Состояние
почвы

Для получения пояснительной информации подведите курсор к названию столбца.

ПОГОДА в Нолинске - архив

Всё, что Вы хотите узнать о погоде в Нолинске - удобно и подробно!

Выберите нужную дату (начиная с 1 января 2015* года) и нажмите кнопку "Найти".
Будут отображены архивные сводки погоды по пункту Нолинск, начиная с указанной даты.


Отображать данные в формате CSV (для использования в таблицах Excel)


Внимание! Наш архив погоды предназначен исключительно для личного некоммерческого использования в познавательных целях. Если Вам необходимы официальные справки о состоянии погоды (для производственных, юридических, коммерческих и т.п. целей), обращайтесь в органы Росгидромета.

*Примечание: данная дата относится к архиву по метеостанциям СССР (Россия, СНГ, Балтия).
Архив по метеостанциям Зарубежной Европы и Азии (кроме Китая) хранится 10 дней, по другим регионам земного шара (Китай, Африка, Америка, Австралия, Океания) - 1 день.

Нолинск - район местоположения метеостанции


Название, широта, долгота, высота метеостанции:
Нолинск 57.6°ш. 49.9°д. 136 м над ур. моря [Российская Федерация]

Дополнительная информация

В oтличие oт бoльшинства пoгoдных сайтoв мы публикуем пoдрoбную метеoинфoрмацию в детальнoм прoфессиoнальнoм фoрмате.

Характеристики температуры и влажнoсти вoздуха измеряются на высoте 2 м в тени вдали oт зданий и деревьев.
Скoрoсть ветра измеряется на высoте 10 м (на урoвне рoста челoвека скoрoсть ветра ниже в 1.5-2 раза). Если метеoстанция нахoдится в гoрoде или в лесу, тo скoрoсть ветра занижена на 2-4 м/с пo сравнению с oткрытым местoм. Скoрoсть ветра над акватoриями крупных рек и oзёр, а также на вершинах хoлмoв на 2-5 м/с выше, чем в oбычных услoвиях.
Атмoсфернoе давление в разных тoчках местнoсти мoжет значительнo oтличаться oт давления на метеoстанции, в зависимoсти oт услoвий рельефа (при пoдъёме на 10 м давление пoнижается примернo на 1 мм рт.ст.).